Regional Weather Roundup
Issued by NWS Northern Indiana

Home | Current Version | Previous Version | Graphics & Text | Print | Product List | Glossary On
Versions: 1 2 3 4 5 6 7 8 9 10 11 12 13 14 15 16 17 18 19 20 21 22 23 24 25 26 27 28 29 30 31 32 33 34 35 36 37 38 39 40 41 42 43 44 45 46 47 48 49 50
455
ASUS43 KIWX 290100
RWRIWX

KIWX WEATHER ROUNDUP
NATIONAL WEATHER SERVICE NORTHERN INDIANA
900 PM EDT FRI APR 28 2017

NOTE: "FAIR" INDICATES FEW OR NO CLOUDS BELOW 12,000 FEET WITH NO
SIGNIFICANT WEATHER AND/OR OBSTRUCTIONS TO VISIBILITY.

* THESE STATIONS ARE NOT UNDER NWS QUALITY CONTROL. THEY ALSO MAY NOT
  REPORT WEATHER SUCH AS PRECIPITATION OR FOG.

INZ001>027-290200-
NORTHERN INDIANA

CITY           SKY/WX    TMP DP  RH WIND       PRES   REMARKS
GARY*          PTCLDY    50  45  81 CALM      29.90R
SOUTH BEND     CLOUDY    56  50  80 S6        29.91S
ELKHART*       CLOUDY    57  48  72 S6        29.92R
GOSHEN         CLOUDY    55  46  71 SE8       29.91R
MONTICELLO*    LGT RAIN  54  52  94 E3        29.89R
ANGOLA*        MOCLDY    54  43  66 SE3       29.93R
FORT WAYNE     CLOUDY    53  48  83 NE5       29.92R
PERU/GRISSOM   LGT RAIN  54  54 100 E6        29.89R

$$
INZ028>050-290200-
CENTRAL INDIANA

CITY           SKY/WX    TMP DP  RH WIND       PRES   REMARKS
LAFAYETTE      LGT RAIN  54  54 100 E5        29.88S FOG
KOKOMO*        RAIN      54  52  93 NE3       29.92R FOG
MUNCIE*        LGT RAIN  57  53  86 S8G24     29.88R
INDIANAPOLIS   CLOUDY    56  54  93 NE8       29.86R

$$
MIZ043>046-050>051-056>058-064>065-071>073-077>080-290200-
SOUTHWEST LOWER MICHIGAN

CITY           SKY/WX    TMP DP  RH WIND       PRES   REMARKS
BATTLE CREEK   CLOUDY    58  47  66 S7        29.92R
BENTON HARBOR  CLOUDY    54  46  74 CALM      29.90R
HOLLAND        CLOUDY    55  44  66 VRB3      29.92R
GRAND RAPIDS   CLOUDY    59  43  55 CALM      29.90S
KALAMAZOO      CLOUDY    59  46  62 S10       29.91S

$$
OHZ001>008-015>018-024>025-290200-
NORTHWEST OHIO

CITY           SKY/WX    TMP DP  RH WIND       PRES   REMARKS
DEFIANCE       LGT RAIN  52  49  89 NE3       29.92F
FINDLAY        RAIN      55  49  80 E8        29.91F
TOLEDO EXPRESS LGT RAIN  53  52  96 CALM      29.94F
TOLEDO METCALF LGT RAIN  56  52  86 SE7       29.95F
LIMA           LGT RAIN  55  52  89 SE17      29.87F

$$
AND FOR LAKE MICHIGAN COASTAL AND OPEN LAKE BUOY OBSERVATIONS

STATION/POSITION TEMP    WIND        PRES    VSBY  WAVE
                 AIR SEA DIR/SP/G                  HT/PER
                 (F)     (DEG/KT/KT) (MB)    (MI)  (FT/S)
CALUMET HARBOR    47      10/  5/  8 1011.7F
MICHIGAN CITY     57     160/  5/  6   N/A
BURNS HARBOR      50     100/  2/  5 1012.5S
4 MI NW BRIDGMAN  50 48   30/  6/  8 1012.9R         2/ 3
MICHIGAN CITY     46 46                N/A           1/ 3

$$
&&




USA.gov is the U.S. government's official web portal to all federal, state and local government web resources and services.